[[{"header":{"parameterUnit":"m.s-1","parameterCategory":1,"la1":30.2991,"la2":30.254,"lo1":-89.0895,"lo2":-89.0444,"dy":0.0017,"dx":0.0017,"nx":28,"ny":28,"refTime":"2023-08-22T21:00:00:Z","depth":0,"parameterNumber":2,"parameterNumberName":"U-component_of_WINDS"},"data":[0,0,0,0,0,0,0,0,0,0,0,0,0,0,0,0,0,0,0,0,0,0,0,0,0,0,0,0,0,0,0,0,0,0,0,0,0,0,0,0,0,0,0,0,0,0,0,0,0,0,0,0,0,0,0,0,0,0,2.7852,2.7853,0,2.7996,2.7998,2.7999,2.7996,2.7994,2.7992,2.799,2.8138,2.8143,2.8149,0,0,0,0,0,0,0,0,0,0,0,0,0,2.7574,2.7579,2.7851,2.7853,2.7855,2.7996,2.7998,2.8,2.7996,2.7994,2.7991,2.7989,2.8136,2.8143,2.815,0,0,0,0,0,0,0,0,0,0,0,0,0,2.7704,2.7581,2.7851,2.787,2.7873,2.7995,2.7998,2.8,2.7996,2.7993,2.7991,2.7988,2.8134,2.8142,2.8151,2.8263,0,0,2.8177,2.8181,0,0,0,0,0,0,0,0,2.7696,2.7714,2.7866,2.7869,2.7873,2.7975,2.7954,2.8088,2.7997,2.795,2.799,2.7986,2.8086,2.8098,2.8132,2.827,2.8276,2.8178,2.8183,2.8187,2.8189,0,0,0,0,0,0,0,2.7687,2.7708,2.7909,2.7868,2.7872,2.7872,2.7887,2.7979,2.8033,2.7954,2.7954,2.7971,2.8087,2.8124,2.8135,2.8279,2.8178,2.8185,2.8191,2.8194,2.8518,2.8522,0,0,0,0,0,0,2.7674,2.77,2.7904,2.7913,2.7776,2.7879,2.7896,2.7945,2.8032,2.8042,2.7973,2.797,2.811,2.8125,2.8141,2.8279,2.8187,2.8195,2.82,2.8515,2.8519,2.8523,0,0,0,0,0,0,2.7668,2.7693,2.7898,2.7807,2.7833,2.7887,2.7942,2.7949,2.7986,2.8046,2.8056,2.8,2.8109,2.8128,2.8233,2.8284,2.8199,2.8207,2.8511,2.8516,2.8521,2.8557,0,0,0,0,0,0,2.766,2.769,2.7733,2.7808,2.7838,2.7988,2.7945,2.7954,2.8001,2.7998,2.8074,2.8084,2.8108,2.822,2.8242,2.8295,2.8213,2.8507,2.8513,2.8519,2.8551,2.8563,2.8572,0,0,0,0,0,2.7651,2.7737,2.7736,2.776,2.7893,2.7991,2.8008,2.8033,2.8005,2.8049,2.8088,2.8082,2.8275,2.8231,2.8255,2.8312,2.8504,2.8512,2.8519,2.8547,2.856,2.8572,0,0,0,0,0,0,2.7667,2.7747,2.7746,2.786,2.7919,2.799,2.8046,2.8047,2.8115,2.811,2.8138,2.8155,2.8261,2.8296,2.8246,2.8426,2.8386,2.8399,2.8399,2.8412,2.8422,2.8412,2.8221,0,0,0,0,0,2.7684,2.7757,2.7823,2.7917,2.7947,2.7992,2.8035,2.805,2.8112,2.8137,2.8184,2.8244,2.8319,2.8368,2.8439,2.8557,2.8574,2.8607,2.8618,2.8626,2.8637,2.8703,2.8719,2.8548,2.8548,2.8548,0,0,2.772,2.7773,2.7817,2.7922,2.7969,2.8045,2.8012,2.8093,2.815,2.8149,2.8251,2.8288,2.8358,2.847,2.8521,2.8503,2.8688,2.8636,2.8642,2.8649,2.8713,2.8729,2.8743,2.8553,2.8552,2.8552,0,0,2.7823,2.787,2.7954,2.8003,2.8075,2.8104,2.8125,2.8197,2.8221,2.8324,2.8326,2.8393,2.8521,2.8571,2.8613,2.8738,2.8735,2.8761,2.8815,2.8879,2.8893,2.8905,2.8951,2.8967,2.8771,2.8771,2.8771,0,2.7859,2.7972,2.7997,2.8079,2.8126,2.8129,2.8215,2.8261,2.8353,2.8385,2.8363,2.8524,2.8571,2.8696,2.8726,2.876,2.8785,2.8752,2.8889,2.8901,2.8913,2.8957,2.8974,2.8774,2.8774,2.8773,2.8773,0,2.8013,2.8092,2.8151,2.824,2.8293,2.8377,2.8415,2.8466,2.8476,2.8508,2.8614,2.8671,2.8755,2.8786,2.8796,2.8912,2.8899,2.8883,2.8843,2.8932,2.8973,2.899,2.8778,2.8777,2.8776,2.8775,0,0,2.813,2.8234,2.8255,2.8296,2.8377,2.8439,2.8523,2.8605,2.8649,2.8713,2.8785,2.8893,2.8879,2.8927,2.8944,2.9,2.9097,2.8977,2.8979,2.8998,2.923,2.9242,2.9261,2.9095,2.9099,2.9101,2.9224,0,2.8243,2.8393,2.8418,2.8549,2.8623,2.8628,2.8701,2.8759,2.8791,2.8859,2.8895,2.8972,2.8947,2.8977,2.9032,2.9073,2.9144,2.9064,2.9163,2.9167,2.9146,2.9283,2.9296,2.9409,2.9241,2.9244,2.9246,0,2.8395,2.8463,2.8602,2.8674,2.8706,2.8771,2.885,2.8914,2.898,2.9,2.9055,2.9065,2.9153,2.9109,2.9232,2.9178,2.922,2.9246,2.9251,2.9262,2.9212,2.9298,2.9446,2.9463,2.9271,2.9269,2.9267,0,2.8469,2.8595,2.8695,2.873,2.8816,2.8862,2.89,2.8963,2.9012,2.9081,2.9113,2.9191,2.9234,2.9294,2.9326,2.9291,2.9447,2.9405,2.9467,2.9466,2.95,2.9497,2.9657,2.9526,2.9525,2.9525,2.9525,0,2.8593,2.8677,2.8729,2.879,2.8886,2.8915,2.9009,2.9046,2.9102,2.9172,2.918,2.9245,2.9282,2.9353,2.9378,2.9476,2.9495,2.9515,2.9521,2.9515,2.9512,2.9543,2.9536,2.953,2.9529,2.9528,2.9527,0,2.8691,2.8729,2.8838,2.8911,2.8931,2.8999,2.9061,2.9122,2.9154,2.9242,2.9264,2.9315,2.9399,2.9436,2.9539,2.9556,2.9669,2.9669,2.9647,2.9649,2.9709,2.9703,2.9895,2.9922,2.9771,2.9773,2.9774,0,2.8768,2.8834,2.8914,2.8961,2.9,2.9076,2.9126,2.9157,2.9209,2.929,2.9341,2.9424,2.9493,2.9627,2.9674,2.9753,2.9755,2.9817,2.9767,2.976,2.9758,2.9754,2.9761,2.9826,2.9828,2.9829,2.983,0,2.8901,2.8917,2.8988,2.9067,2.9126,2.919,2.9252,2.929,2.9331,2.9389,2.9475,2.9528,2.9634,2.9717,2.98,2.984,2.9843,2.9845,2.9864,2.9859,2.9844,2.9854,2.9673,2.9841,2.984,2.9839,2.9838,2.9838,2.8992,2.9051,2.9117,2.9197,2.9247,2.9305,2.9366,2.9406,2.9478,2.9567,2.9581,2.9673,2.9739,2.985,2.9893,2.9966,2.9951,2.9978,2.9985,2.9991,2.9995,2.9832,2.9981,2.9981,2.998,2.998,2.998,0,2.9127,2.917,2.9243,2.933,2.9393,2.9389,2.9458,2.9511,2.9592,2.9653,2.9721,2.982,2.9902,2.9956,3.0038,3.0087,3.009,3.0107,3.0105,3.0114,3.0003,2.9979,3.0103,3.0103,3.0103,3.0103,3.0103,3.0103,2.9204,2.9304,2.9328,2.9454,2.9496,2.9586,2.9626,2.968,2.9729,2.984,2.9907,2.9942,3.0001,3.0088,3.0163,3.0177,3.0207,3.0226,3.0239,3.0134,3.0122,3.0109,3.0087,3.0232,3.0232,3.0344,3.0345,3.0346]},{"header":{"parameterUnit":"m.s-1","parameterCategory":1,"la1":30.2991,"la2":30.254,"lo1":-89.0895,"lo2":-89.0444,"dy":0.0017,"dx":0.0017,"nx":28,"ny":28,"refTime":"2023-08-22T21:00:00:Z","depth":0,"parameterNumber":3,"parameterNumberName":"V-component_of_WINDS"},"data":[0,0,0,0,0,0,0,0,0,0,0,0,0,0,0,0,0,0,0,0,0,0,0,0,0,0,0,0,0,0,0,0,0,0,0,0,0,0,0,0,0,0,0,0,0,0,0,0,0,0,0,0,0,0,0,0,0,0,-2.4798,-2.4799,0,-2.4899,-2.49,-2.4901,-2.4908,-2.4907,-2.4906,-2.4905,-2.5007,-2.501,-2.5014,0,0,0,0,0,0,0,0,0,0,0,0,0,-2.4612,-2.4615,-2.4798,-2.48,-2.4801,-2.4899,-2.49,-2.4902,-2.4908,-2.4907,-2.4905,-2.4904,-2.5006,-2.501,-2.5015,0,0,0,0,0,0,0,0,0,0,0,0,0,-2.47,-2.4616,-2.4798,-2.4816,-2.4819,-2.4899,-2.49,-2.4902,-2.4908,-2.4907,-2.4905,-2.4903,-2.5004,-2.501,-2.5015,-2.5084,0,0,-2.5032,-2.5035,0,0,0,0,0,0,0,0,-2.4695,-2.4707,-2.4812,-2.4815,-2.4818,-2.4889,-2.4872,-2.4963,-2.4909,-2.4874,-2.4905,-2.4903,-2.4969,-2.4977,-2.5,-2.5089,-2.5093,-2.5033,-2.5036,-2.5039,-2.504,0,0,0,0,0,0,0,-2.4689,-2.4703,-2.4838,-2.4814,-2.4817,-2.4819,-2.483,-2.4889,-2.493,-2.4877,-2.4878,-2.489,-2.497,-2.4995,-2.5002,-2.5095,-2.5033,-2.5038,-2.5041,-2.5044,-2.5246,-2.5248,0,0,0,0,0,0,-2.468,-2.4698,-2.4835,-2.4841,-2.4751,-2.4824,-2.4836,-2.4868,-2.4929,-2.4937,-2.4891,-2.489,-2.4986,-2.4996,-2.5006,-2.5091,-2.5039,-2.5044,-2.5047,-2.5244,-2.5247,-2.5249,0,0,0,0,0,0,-2.4676,-2.4692,-2.4831,-2.477,-2.4788,-2.4829,-2.4865,-2.4871,-2.4895,-2.494,-2.4947,-2.4908,-2.4985,-2.4998,-2.5065,-2.5095,-2.5047,-2.5052,-2.5242,-2.5245,-2.5248,-2.5262,0,0,0,0,0,0,-2.467,-2.469,-2.4717,-2.477,-2.4791,-2.4888,-2.4867,-2.4874,-2.4905,-2.4904,-2.4958,-2.4965,-2.4984,-2.5056,-2.5071,-2.5102,-2.5056,-2.5239,-2.5243,-2.5247,-2.5259,-2.5265,-2.527,0,0,0,0,0,-2.4664,-2.4716,-2.4718,-2.4735,-2.4825,-2.489,-2.4901,-2.4923,-2.4907,-2.4934,-2.4963,-2.4964,-2.5089,-2.5063,-2.5079,-2.5112,-2.5237,-2.5242,-2.5246,-2.5256,-2.5264,-2.527,0,0,0,0,0,0,-2.4665,-2.4724,-2.4726,-2.4798,-2.4839,-2.4891,-2.4925,-2.493,-2.4975,-2.4973,-2.4997,-2.5009,-2.5075,-2.5101,-2.507,-2.5183,-2.5162,-2.517,-2.5164,-2.5171,-2.5177,-2.5169,-2.5061,0,0,0,0,0,-2.4674,-2.4721,-2.477,-2.4829,-2.4849,-2.4884,-2.4913,-2.4926,-2.4969,-2.4986,-2.502,-2.5062,-2.5111,-2.5142,-2.519,-2.5263,-2.5275,-2.5294,-2.5299,-2.5304,-2.531,-2.5351,-2.536,-2.5263,-2.5263,-2.5263,0,0,-2.4692,-2.473,-2.4758,-2.483,-2.4863,-2.4912,-2.4898,-2.4951,-2.4987,-2.4994,-2.5059,-2.5086,-2.5134,-2.5204,-2.5237,-2.5227,-2.534,-2.5309,-2.5312,-2.5317,-2.5357,-2.5366,-2.5374,-2.5266,-2.5266,-2.5265,0,0,-2.475,-2.4784,-2.4836,-2.487,-2.4921,-2.4944,-2.4957,-2.5008,-2.5026,-2.5092,-2.5099,-2.5143,-2.5226,-2.5261,-2.5289,-2.5362,-2.5364,-2.5377,-2.5406,-2.5446,-2.5453,-2.546,-2.5487,-2.5496,-2.5383,-2.5383,-2.5383,0,-2.4766,-2.4841,-2.4863,-2.4916,-2.4947,-2.4956,-2.501,-2.5042,-2.5105,-2.5127,-2.5116,-2.5222,-2.5255,-2.5334,-2.5351,-2.5374,-2.539,-2.5371,-2.5451,-2.5458,-2.5464,-2.549,-2.55,-2.5385,-2.5384,-2.5384,-2.5384,0,-2.4858,-2.491,-2.4946,-2.5008,-2.5044,-2.5096,-2.5127,-2.5161,-2.5171,-2.5195,-2.5263,-2.5303,-2.5359,-2.5379,-2.5389,-2.5459,-2.5452,-2.5446,-2.5425,-2.5475,-2.5499,-2.5509,-2.5386,-2.5386,-2.5385,-2.5385,0,0,-2.4919,-2.4993,-2.5006,-2.5035,-2.5092,-2.5132,-2.5186,-2.5242,-2.527,-2.5314,-2.5359,-2.5431,-2.5426,-2.5458,-2.5472,-2.5507,-2.5563,-2.5497,-2.5498,-2.5507,-2.5644,-2.5648,-2.5659,-2.5565,-2.5567,-2.5568,-2.564,0,-2.4983,-2.5079,-2.5102,-2.5184,-2.5232,-2.5242,-2.5289,-2.5329,-2.5354,-2.5398,-2.5425,-2.5475,-2.5464,-2.5484,-2.5519,-2.5549,-2.559,-2.5544,-2.5608,-2.561,-2.5595,-2.5671,-2.5676,-2.5741,-2.5649,-2.5651,-2.5652,0,-2.5071,-2.5118,-2.5205,-2.5257,-2.5278,-2.532,-2.5373,-2.5415,-2.5462,-2.5477,-2.5514,-2.5525,-2.5581,-2.5558,-2.5637,-2.5604,-2.5632,-2.5651,-2.5654,-2.566,-2.5633,-2.568,-2.5762,-2.5772,-2.5667,-2.5666,-2.5665,0,-2.5107,-2.5192,-2.5255,-2.5279,-2.5341,-2.537,-2.5397,-2.5442,-2.5474,-2.5521,-2.5542,-2.5595,-2.5623,-2.5664,-2.5689,-2.567,-2.5766,-2.5744,-2.578,-2.5779,-2.5799,-2.5798,-2.5887,-2.5817,-2.5817,-2.5817,-2.5817,0,-2.5177,-2.523,-2.5272,-2.5311,-2.5371,-2.5396,-2.5455,-2.5482,-2.5522,-2.5566,-2.5579,-2.562,-2.5651,-2.5697,-2.5717,-2.5779,-2.5792,-2.5806,-2.5811,-2.5805,-2.5803,-2.5823,-2.5819,-2.582,-2.5819,-2.5818,-2.5818,0,-2.5227,-2.5257,-2.5327,-2.538,-2.5395,-2.5437,-2.5482,-2.5521,-2.5546,-2.5602,-2.5617,-2.5656,-2.5711,-2.574,-2.5809,-2.5822,-2.5892,-2.5894,-2.5877,-2.5879,-2.5913,-2.5909,-2.6018,-2.6034,-2.5953,-2.5954,-2.5955,0,-2.5269,-2.531,-2.5368,-2.5399,-2.5427,-2.5477,-2.551,-2.5537,-2.5571,-2.5628,-2.5659,-2.5715,-2.5761,-2.5848,-2.5883,-2.5935,-2.5939,-2.5974,-2.5947,-2.594,-2.594,-2.5937,-2.5941,-2.5978,-2.5979,-2.5979,-2.598,0,-2.5341,-2.5354,-2.5402,-2.5455,-2.5495,-2.5538,-2.5581,-2.5605,-2.5639,-2.5677,-2.5734,-2.577,-2.584,-2.5895,-2.5951,-2.5979,-2.5986,-2.5988,-2.5999,-2.5994,-2.5982,-2.5989,-2.5889,-2.5985,-2.5985,-2.5984,-2.5984,-2.5984,-2.5389,-2.5426,-2.5473,-2.5526,-2.5561,-2.5601,-2.564,-2.567,-2.5718,-2.5778,-2.5791,-2.5851,-2.5897,-2.5972,-2.6002,-2.605,-2.6043,-2.6058,-2.6063,-2.6066,-2.6068,-2.5975,-2.606,-2.606,-2.6059,-2.6059,-2.6059,0,-2.5461,-2.5492,-2.5541,-2.5601,-2.5642,-2.5645,-2.5693,-2.5728,-2.5781,-2.5823,-2.5869,-2.5934,-2.5988,-2.6027,-2.6083,-2.6113,-2.6117,-2.6127,-2.6124,-2.6131,-2.607,-2.6055,-2.6122,-2.6122,-2.6122,-2.6122,-2.6122,-2.6122,-2.5504,-2.5568,-2.5587,-2.5668,-2.5699,-2.5758,-2.5785,-2.5822,-2.5856,-2.5929,-2.5974,-2.5999,-2.6041,-2.61,-2.615,-2.616,-2.618,-2.6189,-2.6199,-2.6142,-2.6135,-2.6129,-2.6115,-2.6193,-2.6193,-2.6256,-2.6256,-2.6257]}]]